Weather History for New Philadelphia, OH

Change the Weather History Date:

Wednesday, May 7, 2014

  Actual Average Record
Temperature  
Mean Temperature 66 °F 57 °F  
Max Temperature 83 °F 70 °F 87 °F (1982)
Min Temperature 48 °F 45 °F 25 °F (1970)
Degree Days  
Heating Degree Days 0 8  
Month to date heating degree days 73 62  
Since 1 July heating degree days 6077 5477  
Cooling Degree Days 1 0  
Month to date cooling degree days 1 0  
Year to date cooling degree days 2 7  
Growing Degree Days 15 (Base 50)    
Moisture  
Dew Point 47 °F    
Average Humidity 59    
Maximum Humidity 86    
Minimum Humidity 31    
Precipitation  
Precipitation 0.85 in 0.12 in 0.89 in (2002)
Month to date precipitation 0.94 0.79  
Year to date precipitation 12.73 12.22  
Sea Level Pressure  
Sea Level Pressure 30.02 in    
Wind  
Wind Speed 4 mph (East)    
Max Wind Speed 30 mph    
Max Gust Speed 39 mph    
Visibility 9 miles    
Events Rain , Thunderstorm    
T = Trace of Precipitation, MM = Missing Value Source: NWS Daily Summary

Daily Weather History Graph

Daily Weather History Graph

Search for Another Location

Airport:

Trip Planner

Search our weather history database for the weather conditions in past years. The results will help you decide how hot, cold, wet, or windy it might be!

Date:

Astronomy

May. 07, 2014 Rise Set
Actual Time 6:17 AM EDT 8:27 PM EDT
Civil Twilight 5:47 AM EDT 8:57 PM EDT
Nautical Twilight 5:10 AM EDT 9:34 PM EDT
Astronomical Twilight 4:30 AM EDT 10:15 PM EDT
Moon 1:29 PM EDT (5/7) 2:17 AM EDT (5/7)
Length of Visible Light 15h 10m
Length of Day
14h 09m
First Quarter, 55% of the Moon is Illuminated
May 7
First Quarter
May 14
Full
May 21
Last Quarter
May 28
New
Jun 5
First Quarter

Hourly Weather History & Observations

Time (EDT) Temp. Heat Index Dew Point Humidity Pressure Visibility Wind Dir Wind Speed Gust Speed Precip Events Conditions
12:53 AM 54.0 °F - 35.1 °F 49% 30.04 in 10.0 mi East 8.1 mph - N/A   Clear
1:53 AM 52.0 °F - 35.1 °F 53% 30.04 in 10.0 mi East 4.6 mph - N/A   Clear
2:53 AM 51.1 °F - 35.1 °F 54% 30.02 in 10.0 mi Calm Calm - N/A   Clear
3:53 AM 52.0 °F - 36.0 °F 54% 30.03 in 10.0 mi ESE 4.6 mph - N/A   Overcast
4:53 AM 50.0 °F - 37.0 °F 61% 30.01 in 10.0 mi ESE 4.6 mph - N/A   Partly Cloudy
5:10 AM 51.1 °F - 37.0 °F 59% 30.00 in 10.0 mi Calm Calm - N/A Thunderstorm Thunderstorm
5:33 AM 50.0 °F - - N/A% 30.00 in - Calm Calm - 0.01 in Thunderstorm Thunderstorm
5:53 AM 48.0 °F - 43.0 °F 83% 29.99 in 10.0 mi SE 5.8 mph - 0.01 in Thunderstorm Thunderstorm
6:06 AM 48.9 °F - 44.1 °F 83% 29.99 in 10.0 mi SE 4.6 mph - N/A Thunderstorm Overcast
6:38 AM 51.1 °F - 41.0 °F 68% 30.11 in 4.0 mi North 13.8 mph 39.1 mph 0.11 in Rain , Thunderstorm Heavy Thunderstorms and Rain
6:46 AM 50.0 °F - 43.0 °F 77% 30.07 in 1.8 mi East 10.4 mph - 0.37 in Rain , Thunderstorm Heavy Thunderstorms and Rain
6:59 AM 48.9 °F - 45.0 °F 86% 30.08 in - NNE 11.5 mph - 0.40 in Thunderstorm Thunderstorm
7:03 AM 48.9 °F - 46.0 °F 90% 30.08 in 1.8 mi NNE 9.2 mph - 0.59 in Rain , Thunderstorm Heavy Thunderstorms and Rain
7:18 AM 50.0 °F - 48.0 °F 93% 30.05 in 3.0 mi NE 9.2 mph - 0.79 in Rain , Thunderstorm Thunderstorms and Rain
7:40 AM 50.0 °F - 46.9 °F 89% 30.05 in 10.0 mi ESE 5.8 mph - 0.83 in   Overcast
7:53 AM 50.0 °F - 46.9 °F 89% 30.06 in 10.0 mi Calm Calm - 0.83 in   Overcast
8:53 AM 50.0 °F - 46.9 °F 89% 30.08 in 10.0 mi Variable 5.8 mph - 0.01 in   Overcast
9:53 AM 53.1 °F - 48.0 °F 83% 30.10 in 10.0 mi ESE 6.9 mph - N/A   Scattered Clouds
10:53 AM 55.9 °F - 50.0 °F 80% 30.09 in 10.0 mi South 8.1 mph - N/A   Clear
11:53 AM 63.0 °F - 53.1 °F 70% 30.06 in 10.0 mi SE 4.6 mph - N/A   Clear
1:53 PM 73.0 °F - 54.0 °F 51% 30.02 in 10.0 mi East 6.9 mph - N/A   Clear
2:53 PM 77.0 °F - 55.0 °F 47% 30.00 in 10.0 mi ESE 8.1 mph - N/A   Clear
3:53 PM 79.0 °F - 55.0 °F 44% 29.97 in 10.0 mi SE 8.1 mph - N/A   Clear
4:53 PM 82.0 °F 81.3 °F 54.0 °F 38% 29.95 in 10.0 mi Variable 4.6 mph - N/A   Clear
5:53 PM 82.9 °F - 48.9 °F 31% 29.95 in 10.0 mi WSW 8.1 mph - N/A   Clear
6:53 PM 82.0 °F - 51.1 °F 34% 29.96 in 10.0 mi Calm Calm - N/A   Clear
7:53 PM 77.0 °F - 55.9 °F 48% 29.95 in 10.0 mi NNE 3.5 mph - N/A   Clear
8:53 PM 70.0 °F - 55.9 °F 61% 29.97 in 10.0 mi Calm Calm - N/A   Clear
9:53 PM 68.0 °F - 55.0 °F 63% 30.00 in 10.0 mi East 5.8 mph - N/A   Clear
10:53 PM 64.9 °F - 55.0 °F 70% 30.00 in 10.0 mi ESE 6.9 mph - N/A   Clear